Goodland, KS

8:37 PM MDT on August 17, 2017 (GMT -0600)
Renner-Goodland Municipal

Weather History for KGLD - August, 2013

Change the Weather History Date:

Monday, August 26, 2013

  Actual Average Record
Temperature  
Mean Temperature 83 °F 72 °F  
Max Temperature 98 °F 86 °F 106 °F (1926)
Min Temperature 68 °F 58 °F 42 °F (1906)
Degree Days  
Heating Degree Days 0 0  
Month to date heating degree days 0 0  
Since 1 June heating degree days 38 41  
Since 1 July heating degree days 7 4  
Cooling Degree Days 18 8  
Month to date cooling degree days 250 243  
Year to date cooling degree days 920 797  
Since 1 June cooling degree days 831 756  
Growing Degree Days 34 (Base 50)    
Moisture  
Dew Point 55 °F    
Average Humidity 45    
Maximum Humidity 68    
Minimum Humidity 21    
Precipitation  
Precipitation 0.00 in 0.07 in 1.22 in (1933)
Month to date precipitation 0.79 2.37  
Year to date precipitation 8.64 15.57  
Snow  
Snow 0.00 in 0.00 in - ()
Month to date snowfall 0.0 0.0  
Since 1 June snowfall 0.0 0.0  
Since 1 July snowfall 0.0 0.0  
Snow Depth 0.00 in    
Sea Level Pressure  
Sea Level Pressure 29.94 in    
Wind  
Wind Speed 17 mph (South)    
Max Wind Speed 26 mph    
Max Gust Speed 35 mph    
Visibility 10 miles    
Events      
T = Trace of Precipitation, MM = Missing Value Source: NWS Daily Summary

Daily Weather History Graph

Daily Weather History Graph

Search for Another Location

Airport or City:

Trip Planner

Search our weather history database for the weather conditions in past years. The results will help you decide how hot, cold, wet, or windy it might be!

Date:

Astronomy

Aug. 26, 2013 Rise Set
Actual Time 6:09 AM MDT 7:26 PM MDT
Civil Twilight 5:42 AM MDT 7:54 PM MDT
Nautical Twilight 5:08 AM MDT 8:27 PM MDT
Astronomical Twilight 4:33 AM MDT 9:02 PM MDT
Moon 10:40 PM MDT (8/26) 12:11 PM MDT (8/26)
Length of Visible Light 14h 11m
Length of Day
13h 16m
Waning Gibbous, 66% of the Moon is Illuminated
Aug 26
Waning Gibbous
Aug 28
Last Quarter
Sep 5
New
Sep 12
First Quarter
Sep 19
Full

Hourly Weather History & Observations

Time (MDT) Temp. Heat Index Dew Point Humidity Pressure Visibility Wind Dir Wind Speed Gust Speed Precip Events Conditions
12:53 AM 73.0 °F - 57.9 °F 59% 29.99 in 10.0 mi South 15.0 mph - N/A   Clear
1:53 AM 72.0 °F - 57.9 °F 61% 29.98 in 10.0 mi South 16.1 mph - N/A   Clear
2:53 AM 72.0 °F - 57.9 °F 61% 29.98 in 10.0 mi South 17.3 mph - N/A   Clear
3:53 AM 71.1 °F - 57.9 °F 63% 29.97 in 10.0 mi South 15.0 mph - N/A   Clear
4:53 AM 70.0 °F - 57.9 °F 65% 29.97 in 10.0 mi South 16.1 mph - N/A   Clear
5:53 AM 68.0 °F - 57.0 °F 68% 29.98 in 10.0 mi South 15.0 mph - N/A   Clear
6:53 AM 70.0 °F - 57.0 °F 63% 29.99 in 10.0 mi SSW 16.1 mph - N/A   Clear
7:53 AM 73.9 °F - 57.9 °F 57% 29.99 in 10.0 mi SSW 17.3 mph 23.0 mph N/A   Clear
8:53 AM 81.0 °F 81.0 °F 57.0 °F 44% 29.98 in 10.0 mi SW 17.3 mph 25.3 mph N/A   Clear
9:53 AM 88.0 °F 86.5 °F 55.9 °F 34% 29.98 in 10.0 mi SW 15.0 mph - N/A   Clear
10:53 AM 91.0 °F 89.7 °F 57.0 °F 32% 29.97 in 10.0 mi South 16.1 mph - N/A   Clear
11:53 AM 95.0 °F 93.0 °F 55.0 °F 26% 29.96 in 10.0 mi South 16.1 mph 28.8 mph N/A   Clear
12:53 PM 96.1 °F 93.5 °F 53.1 °F 23% 29.94 in 10.0 mi SSW 16.1 mph 31.1 mph N/A   Clear
1:53 PM 96.1 °F - 51.1 °F 22% 29.93 in 10.0 mi SSW 19.6 mph 29.9 mph N/A   Clear
2:53 PM 98.1 °F - 51.1 °F 20% 29.91 in 10.0 mi South 23.0 mph 31.1 mph N/A   Clear
3:53 PM 97.0 °F - 51.1 °F 21% 29.90 in 10.0 mi South 21.9 mph 32.2 mph N/A   Clear
4:53 PM 95.0 °F 92.5 °F 53.1 °F 24% 29.89 in 10.0 mi South 20.7 mph 29.9 mph N/A   Clear
5:53 PM 93.0 °F - 52.0 °F 25% 29.89 in 10.0 mi South 21.9 mph 31.1 mph N/A   Clear
6:53 PM 89.1 °F 86.9 °F 54.0 °F 30% 29.90 in 10.0 mi South 16.1 mph - N/A   Clear
7:53 PM 84.0 °F 82.9 °F 55.0 °F 37% 29.91 in 10.0 mi South 15.0 mph - N/A   Clear
8:53 PM 81.0 °F 80.7 °F 55.0 °F 41% 29.92 in 10.0 mi South 13.8 mph - N/A   Clear
9:53 PM 77.0 °F - 55.9 °F 48% 29.92 in 10.0 mi South 15.0 mph - N/A   Clear
10:53 PM 75.9 °F - 55.9 °F 50% 29.92 in 10.0 mi South 15.0 mph - N/A   Clear
11:53 PM 75.9 °F - 55.0 °F 48% 29.91 in 10.0 mi South 16.1 mph - N/A   Clear